Location: ????????
(54.6123°N, 39.2099°E)
Time: 13:21:05
(UTC+00:00)

Cosmos 1703 - Pass Details

Date: 19 May 2025
Orbit: 444 x 453 km, 82.5° (Epoch: 20 June)

Event Time Altitude Azimuth Distance (km) Brightness Sun altitude
Exits shadow 23:47:17 - 185° (S) 1,619 5.2 -9.0°
Reaches altitude 10° 23:47:23 10° 185° (S) 1,581 5.1 -9.0°
Maximum altitude 23:50:49 77° 100° (E) 471 3.0 -8.7°
Drops below altitude 10° 23:54:19 10° 14° (NNE) 1,603 7.0 -8.4°
Sets 23:56:24 0° 13° (NNE) 2,484 8.1 -8.2°
